CDT,Max TemperatureF,Mean TemperatureF,Min TemperatureF,Max Dew PointF,MeanDew PointF,Min DewpointF,Max Humidity, Mean Humidity, Min Humidity, Max Sea Level PressureIn, Mean Sea Level PressureIn, Min Sea Level PressureIn, Max VisibilityMiles, Mean VisibilityMiles, Min VisibilityMiles, Max Wind SpeedMPH, Mean Wind SpeedMPH, Max Gust SpeedMPH,PrecipitationIn, CloudCover, Events, WindDirDegrees
2013-3-1,30,28,26,27,24,23,86,80,75,30.29,30.22,30.16,10,9,5,14,8,17,0.00,8,Snow,313
2013-3-2,32,26,21,23,17,14,86,68,55,30.36,30.29,30.20,10,10,10,13,6,16,0.00,5,,331
2013-3-3,41,30,19,27,21,16,86,69,49,30.20,30.01,29.81,10,10,10,13,6,,0.00,3,,124
2013-3-4,46,40,33,30,29,27,81,69,53,29.92,29.76,29.68,10,10,10,13,9,18,0.00,1,,55
2013-3-5,35,32,30,32,22,18,100,68,55,30.32,30.15,29.94,10,10,4,21,14,32,0.00,6,Rain-Snow,298
2013-3-6,32,28,23,21,19,16,80,68,60,30.43,30.37,30.30,10,10,10,15,7,21,0.00,3,,355
2013-3-7,44,32,19,28,24,18,93,72,49,30.32,30.26,30.17,10,10,10,10,5,,0.00,0,,71
2013-3-8,50,41,32,36,31,27,87,69,50,30.25,30.17,30.03,10,10,10,12,7,17,0.02,3,Rain,99
2013-3-9,60,50,39,48,40,36,100,78,51,30.04,29.81,29.66,10,9,1,16,9,21,0.04,8,Rain-Thunderstorm,139
2013-3-10,51,40,30,52,40,27,100,91,82,29.87,29.71,29.59,10,9,1,18,11,25,0.02,7,Rain,211
2013-3-11,35,32,28,28,24,23,93,77,65,30.01,29.91,29.82,10,10,10,17,11,22,0.01,5,,258
2013-3-12,46,38,30,30,24,21,75,64,40,30.32,30.16,30.01,10,10,10,21,7,30,0.01,1,,277
2013-3-13,42,33,24,27,21,19,80,62,42,30.49,30.40,30.33,10,10,10,16,7,20,0.00,1,,292
2013-3-14,69,50,32,39,31,23,75,52,31,30.35,30.15,30.05,10,10,10,20,8,26,0.00,1,,202
2013-3-15,77,55,33,46,41,32,93,62,32,30.08,29.84,29.67,10,10,10,17,5,24,0.01,0,,191
2013-3-16,57,46,35,46,35,28,87,74,66,30.07,29.94,29.68,10,10,7,21,9,26,0.00,6,,2
2013-3-17,35,34,32,32,30,28,93,88,75,30.07,29.93,29.75,10,9,4,17,12,24,0.15,8,Rain-Thunderstorm,47
2013-3-18,51,42,33,36,29,21,100,71,35,30.07,29.86,29.75,10,8,2,18,6,24,0.00,4,,301
2013-3-19,41,36,30,34,24,12,100,67,36,30.25,30.19,30.07,10,10,7,13,3,,0.00,6,,240
2013-3-20,35,30,26,32,16,9,100,57,33,30.38,30.26,30.15,10,9,0,18,9,25,0.00,2,Fog,303
2013-3-21,32,26,21,28,19,12,87,70,48,30.14,30.03,29.94,10,10,4,12,5,,0.00,6,Snow,78
2013-3-22,33,32,30,32,30,28,100,91,87,30.02,29.97,29.95,10,8,2,9,7,,0.00,8,Snow,47
2013-3-23,41,36,32,32,30,28,100,84,61,30.02,29.95,29.85,10,8,2,15,8,20,0.27,8,Rain-Snow,30
2013-3-24,32,30,28,32,28,19,100,89,69,30.04,29.88,29.73,10,5,0,20,15,28,0.00,8,Snow,327
2013-3-25,32,31,28,27,24,23,80,72,69,30.31,30.22,30.16,10,10,5,18,13,24,0.00,7,Snow,295
2013-3-26,35,29,23,25,22,19,93,72,56,30.41,30.34,30.31,10,10,10,8,6,,0.00,1,,259
2013-3-27,48,37,26,32,28,23,93,73,53,30.34,30.29,30.21,10,10,10,14,4,,0.00,5,,90
2013-3-28,62,50,37,41,35,32,81,61,36,30.25,30.20,30.13,10,10,10,9,5,,0.00,4,,78
2013-3-29,64,50,37,43,37,34,87,61,32,30.22,30.17,30.13,10,10,10,13,7,17,0.00,2,Thunderstorm,57
2013-3-30,59,52,44,52,45,36,94,81,62,30.12,29.98,29.88,10,9,0,17,7,22,0.03,5,Fog-Rain-Thunderstorm,131
2013-3-31,68,56,41,48,40,32,100,66,30,29.98,29.94,29.91,10,7,0,18,4,22,0.00,3,Fog,298